N202PG KLAX-

Flight info

Callsign N202PG
Flight time N/A
Altitude
Route
Aircraft G2CA/L-DOV/C

Departure

Time 2026-04-26 22:08
Airport Los Angeles International Airport (KLAX)

Arrival

Time N/A
Airport -
Time Latitude Longitude Altitude Speed Heading
2026-04-26 21:52 33.93312 -118.40137 121 ft 0 kts 175°
2026-04-26 22:00 33.93311 -118.40130 128 ft 2 kts 187°
2026-04-26 22:00 33.93317 -118.40134 219 ft 14 kts 255°
2026-04-26 22:00 33.93265 -118.40428 321 ft 54 kts 249°
2026-04-26 22:00 33.93201 -118.40954 322 ft 69 kts 259°
2026-04-26 22:01 33.93153 -118.41528 327 ft 69 kts 256°
2026-04-26 22:01 33.93062 -118.42070 349 ft 62 kts 251°
2026-04-26 22:01 33.92951 -118.42552 382 ft 59 kts 253°
2026-04-26 22:01 33.92788 -118.43017 351 ft 67 kts 236°
2026-04-26 22:02 33.92303 -118.43147 218 ft 76 kts 194°
2026-04-26 22:02 33.91941 -118.43064 190 ft 81 kts 179°
2026-04-26 22:02 33.91254 -118.42726 133 ft 76 kts 176°
2026-04-26 22:02 33.90781 -118.42554 170 ft 70 kts 182°
2026-04-26 22:03 33.90344 -118.42244 212 ft 74 kts 159°
2026-04-26 22:03 33.89915 -118.41956 256 ft 71 kts 181°
2026-04-26 22:03 33.89486 -118.41890 421 ft 65 kts 188°
2026-04-26 22:03 33.88987 -118.41669 331 ft 82 kts 169°
2026-04-26 22:04 33.88500 -118.41361 318 ft 76 kts 171°
2026-04-26 22:04 33.88042 -118.41047 330 ft 78 kts 158°
2026-04-26 22:04 33.88075 -118.40637 319 ft 13 kts 223°
2026-04-26 22:04 33.88067 -118.40629 352 ft 3 kts 230°
2026-04-26 22:05 33.88081 -118.40611 387 ft 3 kts 238°
2026-04-26 22:05 33.88083 -118.40599 432 ft 6 kts 239°
2026-04-26 22:05 33.88007 -118.40660 454 ft 7 kts 238°
2026-04-26 22:05 33.87996 -118.40660 386 ft 2 kts 243°
2026-04-26 22:06 33.88003 -118.40648 409 ft 3 kts 244°
2026-04-26 22:06 33.88011 -118.40623 454 ft 4 kts 244°
2026-04-26 22:06 33.88033 -118.40603 481 ft 2 kts 322°
2026-04-26 22:06 33.88047 -118.40581 496 ft 5 kts 336°
2026-04-26 22:07 33.88058 -118.40550 449 ft 4 kts 334°
2026-04-26 22:07 33.88074 -118.40522 453 ft 4 kts 331°
2026-04-26 22:07 33.88089 -118.40484 540 ft 5 kts 328°
2026-04-26 22:07 33.88121 -118.40471 622 ft 19 kts 325°
2026-04-26 22:08 33.88647 -118.40594 910 ft 87 kts 352°
2026-04-26 22:08 33.89221 -118.40270 1205 ft 94 kts
2026-04-26 22:08 33.89880 -118.39980 1219 ft 104 kts 12°
2026-04-26 22:08 33.90553 -118.39753 1276 ft 98 kts
2026-04-26 22:09 33.91151 -118.39689 1548 ft 86 kts 345°
2026-04-26 22:09 33.91789 -118.39678 1665 ft 92 kts 351°
2026-04-26 22:09 33.92422 -118.39679 1812 ft 92 kts 345°
2026-04-26 22:09 33.93054 -118.39649 1987 ft 90 kts 348°
2026-04-26 22:10 33.93697 -118.39675 2112 ft 93 kts 346°
2026-04-26 22:10 33.94313 -118.39734 2275 ft 88 kts 339°
2026-04-26 22:10 33.94906 -118.39898 2359 ft 90 kts 338°
2026-04-26 22:10 33.95523 -118.40006 2511 ft 88 kts 336°
2026-04-26 22:11 33.96110 -118.40211 2638 ft 91 kts 335°
2026-04-26 22:11 33.96639 -118.40369 1851 ft 54 kts 352°
2026-04-26 22:11 33.97317 -118.40674 816 ft 102 kts 328°
2026-04-26 22:11 33.97943 -118.41001 902 ft 92 kts 327°
2026-04-26 22:12 33.98566 -118.41230 892 ft 97 kts 333°
2026-04-26 22:12 33.99187 -118.41535 889 ft 99 kts 327°
2026-04-26 22:12 33.99608 -118.41726 918 ft 97 kts 335°
2026-04-26 22:12 34.00292 -118.41870 849 ft 108 kts
2026-04-26 22:13 34.00958 -118.41445 863 ft 108 kts 41°
2026-04-26 22:13 34.01454 -118.40769 843 ft 109 kts 38°
2026-04-26 22:13 34.02028 -118.40251 835 ft 105 kts 39°
2026-04-26 22:13 34.02542 -118.39574 654 ft 118 kts 64°
2026-04-26 22:14 34.02851 -118.38667 569 ft 114 kts 83°
2026-04-26 22:14 34.03148 -118.37808 550 ft 108 kts 75°
2026-04-26 22:14 34.03433 -118.36997 503 ft 105 kts 73°
2026-04-26 22:14 34.03568 -118.36156 499 ft 108 kts 106°
2026-04-26 22:15 34.03543 -118.35237 514 ft 109 kts 109°
2026-04-26 22:15 34.03505 -118.34371 594 ft 96 kts 107°
2026-04-26 22:15 34.03434 -118.33564 553 ft 104 kts 92°
2026-04-26 22:15 34.03581 -118.32656 547 ft 110 kts 88°
2026-04-26 22:16 34.03734 -118.31746 646 ft 106 kts 83°
2026-04-26 22:16 34.03786 -118.30863 706 ft 108 kts 95°
2026-04-26 22:16 34.03747 -118.29943 662 ft 110 kts 96°
2026-04-26 22:16 34.03776 -118.29022 647 ft 107 kts 88°
2026-04-26 22:17 34.03997 -118.28222 673 ft 104 kts 44°
2026-04-26 22:17 34.04535 -118.27656 779 ft 103 kts 37°
2026-04-26 22:17 34.05101 -118.27096 754 ft 98 kts 32°
2026-04-26 22:17 34.05618 -118.26583 861 ft 101 kts 63°
2026-04-26 22:18 34.05562 -118.26298 694 ft 25 kts 231°
2026-04-26 22:18 34.05494 -118.26391 553 ft 1 kts 255°
2026-04-26 22:18 34.05494 -118.26369 595 ft 1 kts 262°
2026-04-26 22:18 34.05510 -118.26361 736 ft 27 kts 358°
2026-04-26 22:19 34.05674 -118.25815 929 ft 75 kts 89°
2026-04-26 22:19 34.05748 -118.25126 1081 ft 88 kts 85°
2026-04-26 22:19 34.05689 -118.24577 1311 ft 22 kts 134°
2026-04-26 22:19 34.05666 -118.24554 1056 ft 1 kts 148°
2026-04-26 22:20 34.05672 -118.24549 975 ft 1 kts 147°
2026-04-26 22:20 34.05671 -118.24554 1131 ft 1 kts 141°
2026-04-26 22:20 34.05665 -118.24545 1255 ft 7 kts 124°
2026-04-26 22:20 34.05654 -118.24535 1246 ft 1 kts 108°
2026-04-26 22:21 34.05681 -118.24566 1078 ft 34 kts 319°
2026-04-26 22:21 34.05842 -118.25096 934 ft 81 kts 283°
2026-04-26 22:21 34.05858 -118.25643 687 ft 74 kts 259°
2026-04-26 22:21 34.05699 -118.25809 876 ft 59 kts 105°
2026-04-26 22:22 34.05998 -118.25222 633 ft 74 kts 52°
2026-04-26 22:22 34.06089 -118.25066 759 ft 2 kts 69°
2026-04-26 22:22 34.06087 -118.25064 957 ft 0 kts 74°
2026-04-26 22:22 34.06087 -118.25055 895 ft 1 kts 78°
2026-04-26 22:23 34.06091 -118.25043 891 ft 1 kts 79°
2026-04-26 22:23 34.06097 -118.25006 924 ft 20 kts 50°
2026-04-26 22:23 34.06196 -118.24953 1023 ft 37 kts 350°
2026-04-26 22:23 34.06729 -118.25013 1084 ft 92 kts 355°
2026-04-26 22:24 34.07399 -118.24904 1161 ft 103 kts 38°
2026-04-26 22:24 34.07568 -118.24189 907 ft 64 kts 108°
2026-04-26 22:24 34.07582 -118.23991 754 ft 4 kts 133°
2026-04-26 22:24 34.07586 -118.23998 988 ft 1 kts 143°
2026-04-26 22:25 34.07487 -118.23968 764 ft 16 kts 174°
2026-04-26 22:25 34.07420 -118.23983 659 ft 7 kts 191°
2026-04-26 22:25 34.07402 -118.23987 536 ft 1 kts 201°
2026-04-26 22:25 34.07397 -118.23991 515 ft 0 kts 208°
2026-04-26 22:26 34.07531 -118.23955 725 ft 21 kts 123°
2026-04-26 22:26 34.07414 -118.23964 552 ft 29 kts 248°
2026-04-26 22:26 34.07375 -118.23975 586 ft 7 kts 22°
2026-04-26 22:27 34.07368 -118.23984 525 ft 30 kts 215°
2026-04-26 22:27 34.07444 -118.24020 666 ft 30 kts 209°
2026-04-26 22:27 34.07419 -118.23949 745 ft 44 kts 181°
2026-04-26 22:27 34.07570 -118.24125 560 ft 61 kts 281°
2026-04-26 22:28 34.07594 -118.24310 549 ft 31 kts 182°
2026-04-26 22:28 34.07439 -118.24557 699 ft 58 kts 223°
2026-04-26 22:28 34.07119 -118.24981 810 ft 72 kts 225°
2026-04-26 22:28 34.06706 -118.25427 754 ft 88 kts 202°
2026-04-26 22:29 34.06114 -118.25494 905 ft 89 kts 182°
2026-04-26 22:29 34.05514 -118.25417 1118 ft 77 kts 173°
2026-04-26 22:29 34.05165 -118.25439 1493 ft 24 kts 190°
2026-04-26 22:29 34.05112 -118.25438 1386 ft 3 kts 202°
2026-04-26 22:30 34.05106 -118.25442 1355 ft 1 kts 208°
2026-04-26 22:30 34.05150 -118.25378 1065 ft 41 kts 196°
2026-04-26 22:30 34.04896 -118.25641 1215 ft 32 kts 239°
2026-04-26 22:30 34.04914 -118.25718 1178 ft 2 kts 17°
2026-04-26 22:31 34.04897 -118.25720 1202 ft 32 kts 17°
2026-04-26 22:31 34.04987 -118.25744 1041 ft 34 kts 291°
2026-04-26 22:31 34.05009 -118.25823 1141 ft 1 kts 290°
2026-04-26 22:31 34.05054 -118.25910 1103 ft 4 kts 299°
2026-04-26 22:32 34.05074 -118.25925 1067 ft 2 kts 298°
2026-04-26 22:32 34.05080 -118.25931 1053 ft 0 kts 301°
2026-04-26 22:33 34.05079 -118.25927 1053 ft 0 kts 299°